Regional Weather Roundup
Issued by NWS

Home | Current Version | Previous Version | Text Only | Print | Product List | Glossary Off
Versions: 1 2 3 4 5 6 7 8 9 10 11 12 13 14 15 16 17 18 19 20 21 22 23 24 25 26 27 28 29 30 31 32 33 34 35 36 37 38 39 40 41 42 43 44 45 46 47 48 49 50

000
ASUS45 KABQ 231110
RWRNM
NEW MEXICO REGIONAL WEATHER ROUNDUP
NATIONAL WEATHER SERVICE ALBUQUERQUE NM
500 AM MDT WED AUG 23 2017

NOTE: "FAIR" MEANS FEW OR NO CLOUDS BELOW 12,000 FEET AGL WITH NO
       SIGNIFICANT WEATHER OR OBSTRUCTIONS TO VISION.

      THIS PRODUCT IS RELEASED AS TWO VERSIONS.  ONE VERSION NEAR
      THE TOP OF THE HOUR CONTAINING PRELIMINARY DATA FROM ALBUQUERQUE
      AND OTHER STATIONS.  A FINAL VERSION WITH ADDITIONAL DATA IS
      ISSUED ABOUT 10 MINUTES AFTER THE HOUR.

NMZ501-503-504-510>518-231200-
NORTHWEST PLATEAU/NORTHCENTRAL MOUNTAINS

CITY           SKY/WX    TMP DP  RH WIND       PRES   REMARKS
FARMINGTON     FAIR      63  48  58 E6        30.27R
LOS ALAMOS     FAIR      56  50  80 CALM      30.42S
SANTA FE       FAIR      59  56  89 NW5       30.35F
TAOS           FAIR      49  47  93 S14       30.43F
ANGEL FIRE     MOCLDY    44  43  97 CALM      30.49S FOG

$$
NMZ402-403-502-505>509-231200-
WESTCENTRAL MOUNTAINS/SOUTHWEST MOUNTAINS

CITY           SKY/WX    TMP DP  RH WIND       PRES   REMARKS
GALLUP         FAIR      55  41  59 CALM      30.32F
GRANTS         FAIR      61  55  79 S10       30.35F
SILVER CITY    MOCLDY    63  55  74 N6        30.23S

$$
NMZ407-409-411-412-231200-
SOUTHERN DESERTS

CITY           SKY/WX    TMP DP  RH WIND       PRES   REMARKS
DEMING         MOCLDY    70  61  73 NE5       30.15F
LAS CRUCES     FAIR      72  61  70 SE5       30.17F
HOLLOMAN AFB   FAIR      71  62  71 NW7       30.17F
ALAMOGORDO     FAIR      68  61  77 CALM      30.17F
T OR C         FAIR      72  61  68 N7        30.20F

$$
NMZ519>523-231200-
CENTRAL VALLEYS/CENTRAL HIGHLANDS

CITY           SKY/WX    TMP DP  RH WIND       PRES   REMARKS
ALBUQUERQUE    FAIR      66  58  75 E15       30.29F
MORIARTY ARPT  FAIR      60  60 100 NW3       30.37F
CLINES CORNERS FAIR      57  55  93 CALM      30.39F
BELEN          FAIR      64  60  87 CALM      30.28F
SOCORRO        FAIR      68  57  68 NW7       30.25S

$$
NMZ524>526-539-540-231200-
SOUTHCENTRAL MOUNTAINS

CITY           SKY/WX    TMP DP  RH WIND       PRES   REMARKS
RUIDOSO          N/A     57  57 100 SE3       30.39F

$$
NMZ527>531-231200-
NORTHEAST HIGHLANDS/NORTHEAST PLAINS

CITY           SKY/WX    TMP DP  RH WIND       PRES   REMARKS
LAS VEGAS      FAIR      51  49  92 SE9       30.37F
RATON          FAIR      50  48  93 N8        30.33F
CLAYTON        CLOUDY    62  61  96 CALM      30.28R

$$
NMZ532>537-231200-
EASTCENTRAL PLAINS

CITY           SKY/WX    TMP DP  RH WIND       PRES   REMARKS
SANTA ROSA     PTSUNNY   64  62  94 W3        30.27R
TUCUMCARI      CLOUDY    68  66  93 W3        30.20S
CANNON AFB     CLOUDY    65  65 100 NE3       30.24S
CLOVIS AIRPORT MOCLDY    65  63  93 NW5       30.24S

$$
NMZ028-029-538-231200-
SOUTHEAST PLAINS

CITY           SKY/WX    TMP DP  RH WIND       PRES   REMARKS
ROSWELL        FAIR      68  65  90 N8        30.20S
ARTESIA        FAIR      68  68 100 N5        30.19S
CARLSBAD       CLOUDY    68  67  96 NW5       30.17R
HOBBS          MOCLDY    64  64 100 N9        30.18R


$$



USA.gov is the U.S. government's official web portal to all federal, state and local government web resources and services.